{"data":{"norad_id":49208,"epoch":"2026-09-19T23:18:22.169088Z","epoch_age_seconds":71468,"freshness":"FRESH","line1":"1 49208U 21083Y   26262.97108992  .00000062  00000+0  11954-3 0  9990","line2":"2 49208  87.9143 255.5272 0001891  85.5060 274.6289 13.20770947249292","mean_motion":13.20770947,"eccentricity":0.0001891,"inclination_deg":87.9143,"raan_deg":255.5272,"arg_perigee_deg":85.506,"mean_anomaly_deg":274.6289,"bstar":0.00011954,"rev_number":24929,"period_min":109.02723165367,"perigee_km":1180.3470973777,"apogee_km":1183.2062567304,"semimajor_km":7559.913677054,"source":"CELESTRAK","updated_at":"2026-09-20T09:00:44.664981Z"}}